Location: Chequamegon National Forest
(46.1070°N, 90.8420°W)
Time: 04:31:52
(UTC-06:00)

Daily predictions for brighter satellites

Satellite Brightness Start Highest point End
(mag) Time Altitude Azimuth Time Altitude Azimuth Time Altitude Azimuth
Cosmos 1697 Rocket 4.4 03:50:51 29° E 03:50:51 29° E 03:54:14 10° ESE
Cosmos 2082 Rocket 4.1 03:49:09 25° ESE 03:50:02 26° ESE 03:54:41 10° NE
USA 267 4.0 03:45:25 10° NE 03:49:50 47° ENE 03:49:50 47° ENE
Cosmos 1833 Rocket 4.1 04:02:22 32° ESE 04:02:50 33° ESE 04:07:48 10° NE
Cosmos 1980 Rocket 3.2 04:27:02 39° NNE 04:28:05 42° NE 04:33:26 10° SE
USA 234 3.1 04:21:35 10° SE 04:27:59 85° S 04:27:59 85° S
SeaSat 1 3.7 04:24:30 10° NNE 04:27:29 36° NE 04:27:29 36° NE
Cosmos 44 Rocket 4.3 04:37:24 40° SE 04:37:41 40° ESE 04:42:06 10° NE
RESURS DK-1 3.5 04:52:22 41° ENE 04:52:22 41° ENE 04:56:08 10° SE
Meteor 1-19 Rocket 4.3 04:52:52 31° N 04:55:52 79° ENE 05:01:46 10° SSE
NOSS 3-4 (A) 4.4 04:57:07 38° SW 04:57:07 38° SW 05:02:49 10° S
NOSS 3-4 (C) 4.4 04:57:09 38° SW 04:57:09 38° SW 05:02:57 10° S
Cosmos 540 Rocket 3.7 04:58:21 55° N 04:58:21 55° N 05:02:28 10° NNE
SJ 16-02 2.6 05:01:50 31° S 05:01:50 31° S 05:04:14 10° S
IRS-1C Rocket 4.4 04:54:42 10° N 04:58:46 53° N 04:58:46 53° N
Lacrosse 5 rocket 2.2 05:01:08 46° S 05:01:08 46° S 05:04:31 10° SE
Cosmos 2360 4.4 04:58:48 39° N 05:00:54 68° ENE 05:06:35 10° SE
SL-16 R/B 3.8 04:58:41 15° N 05:02:31 30° NE 05:07:29 10° ESE
CZ-2C R/B 4.1 05:00:14 10° NNE 05:04:39 32° E 05:08:55 10° SSE
Cosmos 372 Rocket 4.5 05:08:01 43° SSW 05:08:01 43° SSW 05:11:42 10° S
ATLAS 5 CENTAUR R/B 4.2 05:09:41 13° N 05:10:48 13° N 05:13:29 10° NE
Cosmos 2322 Rocket 3.6 05:06:57 15° N 05:11:04 33° NE 05:16:10 10° ESE
Okean-O 3.0 05:07:27 10° NNE 05:11:53 62° ESE 05:16:16 10° S
EO 1 Del DPAF 3.3 05:11:18 10° SSE 05:14:55 75° ESE 05:14:55 75° ESE
Cosmos 2279 Rocket 3.9 05:13:35 24° NNW 05:17:26 64° W 05:23:34 10° S
Cosmos 1536 Rocket 3.6 05:17:45 32° N 05:19:41 74° E 05:24:01 10° SSE
Cosmos 44 2.8 05:21:10 75° WNW 05:21:15 75° NW 05:25:40 10° NNE
Cosmos 1437 Rocket 3.4 05:23:08 10° S 05:27:02 55° E 05:30:53 10° NNE
OE (NEXTSAT) 4.4 05:27:42 81° E 05:27:42 81° E 05:31:07 10° E
COSMO-SKYMED 1 2.4 05:23:17 10° S 05:27:36 68° W 05:28:21 55° NW
Cosmos 292 Rocket 3.7 05:29:37 51° W 05:30:09 54° WNW 05:34:50 10° NNE
Cosmos 2180 Rocket 4.5 05:24:18 10° NNW 05:30:36 62° W 05:36:47 10° S
Cosmos 1025 Rocket 4.5 05:27:04 10° N 05:31:04 37° ENE 05:35:01 10° SE
Cosmos 1697 Rocket 3.1 05:32:38 39° W 05:33:06 40° WSW 05:38:17 10° S
Cosmos 2082 Rocket 2.3 05:31:09 30° WSW 05:33:47 54° WNW 05:39:23 10° NNE
USA 267 3.7 05:28:34 10° NE 05:34:42 45° NNW 05:37:11 32° WNW
NOAA 6 3.9 05:34:21 10° N 05:39:27 70° WNW 05:44:33 10° SSW
Meteor 1-23 Rocket 4.2 05:34:17 10° N 05:39:54 85° E 05:45:28 10° S
PAYLOAD A 4.1 05:37:34 10° NNE 05:43:02 83° WNW 05:48:26 10° SSW
Okean 1 Rocket 3.8 05:40:58 10° S 05:45:13 53° E 05:49:31 10° NNE
Cosmos 1833 Rocket 3.0 05:44:11 27° WSW 05:46:37 42° NW 05:51:59 10° NNE
IDEFIX/ARIANE 42P 2.4 05:44:04 10° N 05:49:17 77° WNW 05:54:29 10° SSW
Cosmos 1500 4.5 05:48:34 10° SSE 05:52:14 43° E 05:55:54 10° NNE
CZ-4B R/B 4.2 05:47:41 10° N 05:51:46 26° NW 05:51:46 26° NW
Ariane Rocket 4.5 05:56:38 10° NNE 06:01:23 40° E 06:06:07 10° SSE
Cosmos 1536 3.0 05:58:25 10° SSW 06:02:19 46° WNW 06:06:14 10° N
SeaSat 1 3.6 06:02:46 10° N 06:06:34 23° NW 06:07:17 22° WNW
Cosmos 2360 Rocket 3.4 06:04:55 10° NNW 06:10:17 40° NE 06:15:36 10° SE
SAR-Lupe-3 4.5 06:07:58 10° SSE 06:11:33 90° E 06:15:10 10° NNW
USA 234 4.3 06:06:23 10° S 06:11:44 27° SW 06:15:21 17° W
Cosmos 1980 Rocket 2.9 06:08:51 20° NW 06:11:57 34° WSW 06:16:59 10° SSW
Nadezhda 4 Rocket 4.0 06:06:34 10° SSW 06:12:33 53° WNW 06:18:34 10° N
Cosmos 1184 Rocket 3.3 06:11:17 10° N 06:14:35 62° ENE 06:17:52 10° SSE
Meteor 1-11 Rocket 4.2 06:10:57 10° SW 06:16:29 39° WNW 06:21:59 10° N
Meteor 1-4 Rocket 2.6 06:14:35 10° SSW 06:18:23 85° W 06:22:13 10° N
Cosmos 44 Rocket 3.9 06:16:13 16° W 06:19:17 32° NW 06:23:35 10° NNE
BREEZE-M DEB (TANK) 4.2 06:17:41 10° SSW 06:19:55 33° SE 06:23:59 10° ENE
Cosmos 773 Rocket 3.9 06:16:34 10° SSW 06:21:42 79° WNW 06:26:54 10° NNE
Cosmos 2219 Rocket 4.3 06:17:56 10° N 06:21:50 19° NE 06:25:45 10° E
Timation 2 Rocket 4.2 06:15:13 10° SW 06:22:05 72° WNW 06:28:59 10° NNE
Meteor 2-4 Rocket 4.5 06:18:42 11° NW 06:22:56 28° W 06:27:32 10° SSW
Cosmos 1515 4.0 06:21:06 10° NNW 06:24:46 45° W 06:28:25 10° SSW
Thor Agena Rocket 3.6 06:22:07 10° S 06:27:04 57° WSW 06:32:04 10° NNW
Okean 1-7 Rocket 3.6 06:25:24 10° NNW 06:29:54 71° W 06:34:25 10° S
RESURS DK-1 3.8 06:28:18 16° WNW 06:30:00 21° WSW 06:33:05 10° SSW
Cosmos 2237 Rocket 4.5 06:29:03 10° N 06:31:53 14° NE 06:34:43 10° ENE
S3M 4.4 06:26:38 10° N 06:32:46 65° E 06:38:56 10° SSE
CZ-4 R/B 1.9 06:31:00 10° NNE 06:35:08 67° ESE 06:39:19 10° S
Lacrosse 5 rocket 3.8 06:37:54 10° WSW 06:38:25 10° WSW 06:38:55 10° SW
CZ-4C R/B 2.1 06:33:52 10° SW 06:39:09 75° NW 06:45:17 10° NE
SJ-12 4.3 06:35:24 10° N 06:39:13 39° WNW 06:42:59 10° SW
Cosmos 1484 Rocket 2.8 06:36:53 10° N 06:40:48 63° WNW 06:44:37 10° SSW
Cosmos 1538 Rocket 4.3 06:37:15 10° SW 06:42:15 46° WNW 06:47:22 10° NNE
CZ-2C R/B 3.0 06:38:29 10° N 06:42:53 33° WNW 06:47:07 10° SW
SJ-7 4.4 06:41:05 10° N 06:45:02 57° WNW 06:49:02 10° SSW
CSL-04 Debris 4.2 06:39:36 10° NNE 06:45:04 86° WNW 06:50:32 10° SSW
Cosmos 1455 Rocket 4.0 06:41:24 10° S 06:45:44 54° E 06:50:07 10° NNE
Cosmos 1340 Rocket 4.1 06:42:42 10° N 06:46:27 41° ENE 06:50:12 10° SE
SL-16 R/B 2.5 06:41:23 10° NW 06:46:52 50° WSW 06:52:18 10° S
GEOS 3 Rocket 3.8 06:41:56 10° NNE 06:47:15 58° NW 06:52:30 10° WSW
Cosmos 1655 Rocket 4.1 06:41:35 10° S 06:47:49 89° WNW 06:54:08 10° N
SMAP 3.0 06:43:12 10° N 06:47:52 73° WNW 06:52:31 10° SSW
Okean-O 4.1 06:45:08 10° NNW 06:47:53 16° WNW 06:50:38 10° W
Cosmos 1544 Rocket 4.1 06:45:01 10° S 06:49:26 64° E 06:53:51 10° NNE
Cosmos 1092 Rocket 4.4 06:44:04 10° SW 06:49:47 40° WNW 06:55:33 10° N
Cosmos 923 Rocket 4.0 06:45:38 10° SSW 06:50:54 81° WNW 06:56:10 10° NNE
Okean 2 4.3 06:47:21 10° NNW 06:50:54 29° W 06:54:28 10° SSW
Cosmos 2322 Rocket 2.6 06:49:53 10° NW 06:55:14 44° WSW 07:00:35 10° S
ATLAS 5 CENTAUR R/B 3.8 06:52:42 10° NNW 06:57:28 26° NNE 07:02:38 10° E
ALOS 3.6 06:53:16 10° NNE 06:57:45 44° E 07:02:12 10° S
Cosmos 1743 2.7 06:55:11 10° S 06:58:59 87° W 07:02:50 10° N
ERS-2 3.6 06:56:45 10° NNE 07:00:17 43° E 07:03:49 10° S
AQUARIUS 4.3 06:58:52 10° N 07:03:14 51° WNW 07:07:35 10° SSW
Cosmos 2026 Rocket 4.3 07:02:22 10° SSW 07:08:21 47° WNW 07:14:29 10° N
